Flag Weather past 2 weeks in Seattle, Washington, U.S.A.

Now
46 °F

Passing clouds.


Feels Like: 42 °F
Forecast: 46 / 51 °F
Wind: 9 mph from Southeast

Location: Seattle Boeing Field

Current Time: Nov 22, 2014 at 11:36:39 PM

Latest Report: Nov 22, 2014 at 11:04 PM


Visibility: 10 mi

Pressure: 30.13 "Hg

Humidity: 82%

Dew point: 41 °F

Location of SeattleLocation

Historic Weather in Seattle — Graph

°F

Seattle temperature yesterday

Maximum temperature yesterday: 55 °F (at 7:53 PM)
Minimum temperature yesterday: 50 °F (at 12:53 AM)
Average temperature yesterday: 51 °F

Past Weeks' High & Low Weather Summary

 TemperatureHumidityPressure
High57 °F (Nov 9, 12:53 PM)90% (Nov 8, 5:53 AM)30.54 "Hg (Nov 8, 5:53 AM)
Low27 °F (Nov 15, 6:53 AM)16% (Nov 12, 1:53 PM)29.31 "Hg (Nov 21, 5:53 PM)
Average44 °F61%30.11 "Hg
* Reported Nov 7 9:53 PM — Nov 22 9:53 PM, Seattle, Weather by CustomWeather, © 2014

Note: Actual official high and low records may vary slightly from our data, if they occured in-between our weather recording intervals... More about our weather records

Advertising

Seattle weather history for previous 24 hours

 ConditionsComfort  
Time TempWeatherWind HumidityBarometerVisibility
9:53 PM
Nov 22
46 °FPassing clouds.7 mph79%30.10 "Hg10 mi
8:53 PM45 °FPassing clouds.6 mph82%30.08 "Hg10 mi
7:53 PM48 °FPartly cloudy.9 mph80%30.06 "Hg10 mi
6:53 PM46 °FPartly cloudy.9 mph86%30.04 "Hg10 mi
5:53 PM46 °FPassing clouds.3 mph83%30.01 "Hg10 mi
4:53 PM47 °FPartly cloudy.5 mph80%29.98 "Hg10 mi
3:53 PM49 °FPartly sunny.5 mph77%29.96 "Hg10 mi
3:01 PM48 °FBroken clouds.7 mph82%29.94 "Hg10 mi
2:53 PM50 °FPartly sunny.7 mph74%29.93 "Hg10 mi
1:53 PM50 °FPartly sunny.9 mph77%29.89 "Hg10 mi
12:53 PM50 °FPartly sunny.9 mph74%29.85 "Hg10 mi
11:53 AM49 °FOvercast.7 mph77%29.83 "Hg10 mi
10:53 AM49 °FLight rain. More clouds than sun.8 mph77%29.79 "Hg10 mi
9:53 AM48 °FLight rain. More clouds than sun.10 mph74%29.75 "Hg10 mi
8:53 AM49 °FLight rain. More clouds than sun.10 mph74%29.73 "Hg10 mi
7:53 AM48 °FBroken clouds.5 mph77%29.70 "Hg10 mi
6:53 AM50 °FPartly cloudy.9 mph68%29.68 "Hg10 mi
5:53 AM49 °FMostly cloudy.9 mph71%29.68 "Hg10 mi
4:53 AM48 °FPassing clouds.10 mph74%29.66 "Hg10 mi
3:53 AM46 °FClear.9 mph79%29.65 "Hg10 mi
2:53 AM48 °FPassing clouds.6 mph74%29.63 "Hg10 mi
1:53 AM49 °FPassing clouds.5 mph71%29.59 "Hg10 mi
12:53 AM51 °FPassing clouds.8 mph66%29.55 "Hg10 mi
11:53 PM
Nov 21
52 °FPassing clouds.9 mph69%29.50 "Hg10 mi
Weather by CustomWeather, © 2014

See weather overviewHow to use our weather pages